Location: Doux
(49.5045°N, 4.4321°E)
Time: 03:37:54
(UTC+00:00)

SL-16 R/B - Pass Details

Date: 23 May 2024
Orbit: 985 x 1007 km, 99.7° (Epoch: 21 June)

Event Time Altitude Azimuth Distance (km) Brightness Sun altitude
Rises 01:48:08 0° 152° (SSE) 3,722 5.2 -14.2°
Reaches altitude 10° 01:50:37 10° 150° (SSE) 2,777 4.6 -14.0°
Maximum altitude 01:56:49 69° 69° (ENE) 1,076 2.9 -13.5°
Drops below altitude 10° 02:03:03 10° 348° (NNW) 2,794 5.5 -12.9°
Sets 02:05:33 0° 346° (NNW) 3,747 6.2 -12.7°
